Location: *
(49.9853°N, 3.5569°E)
Time: 09:54:21
(UTC+00:00)

Cosmos 1733 - Pass Details

Date: 22 September 2019
Orbit: 507 x 522 km, 82.5° (Epoch: 23 October)

Event Time Altitude Azimuth Distance (km) Brightness Sun altitude
Exits shadow 19:38:59 29° 54° (NE) 968 4.3 -18.7°
Drops below altitude 10° 19:41:21 10° 25° (NNE) 1,749 5.9 -19.0°
Sets 19:43:36 0° 17° (NNE) 2,644 6.9 -19.3°
